Weather in Nakhon Si Thammarat

Thailand     8°26′18″N   99°56′56″E
temp.,
°C
wind,
m/s
gust,
m/s
humid.,
%
clouds,
%
prec.,
mm/h
press.,
hPa
HPBL,
m
12 april, mon
mon1201:00+25sse118647 1.1 1012267
04:00+25sse128728 0.0 1011253
07:00+26ssw128553 0.1 1012227
10:00+30ese34706 0.7 1013999
13:00+31e446132 1.8 10111322
16:00+30e44625 0.1 10091078
19:00+27e24785 0.1 1011266
22:00+26sse13822 0.0 1013268
13 april, tue
tue1301:00+25sw12856 0.0 1012129
04:00+25w118788 0.0 101081
07:00+26w118378 0.0 1011113
10:00+31ene226494 0.0 10121094
13:00+31e4366100 1.1 1010995
16:00+31e446362 0.7 10081009
19:00+27e237725 1.1 1010267
22:00+26se128193 0.8 1012231
14 april, wed
wed1401:00+25sw1189100 1.6 101187
04:00+24wsw119099 0.0 100956
07:00+25sw118799 0.0 101174
10:00+30sse126398 0.0 1012914
13:00+30e2268100 2.1 1010894
16:00+30ene226662 1.4 1008993
19:00+26e118366 4.9 1010162
22:00+25sw228898 0.2 101184
15 april, thu
thu1501:00+25sw2289100 0.2 101075
04:00+24w2289100 0.2 101070
07:00+25wnw128597 0.6 1011101
10:00+31nne015998 0.0 1012901
13:00+30ene326580 0.8 1010733
16:00+30ne216684 1.9 1008737
19:00+27se118175 4.2 101064
22:00+26ssw2287100 1.6 101167
16 april, fri
fri1601:00+25wsw1188100 1.6 101056
04:00+24wsw1188100 0.0 100954
07:00+25sw118690 0.0 101173
10:00+31sse1260100 0.0 1012888
13:00+32ene435533 0.1 10091603
16:00+30e32708 0.9 1008600
19:00+27se11830 2.9 100985
22:00+26ssw12881 0.5 101172